Flag for United Kingdom Weather past 2 weeks in Nottingham, England, United Kingdom

Now
46 °F

Passing clouds.


Feels Like: 40 °F
Forecast: 46 / 60 °F
Wind: 14 mph from West

Location: East Midlands

Current Time: Oct 22, 2014 at 9:02:41 AM

Latest Report: Oct 22, 2014 at 8:20 AM


Visibility: N/A

Pressure: 30.24 "Hg

Humidity: 82%

Dew point: 41 °F

Location of NottinghamLocation

Historic Weather in Nottingham — Graph

°F

Nottingham temperature yesterday

Maximum temperature yesterday: 55 °F (at 6:50 AM)
Minimum temperature yesterday: 43 °F (at 8:50 PM)
Average temperature yesterday: 50 °F

Past Weeks' High & Low Weather Summary

 TemperatureHumidityPressure
High66 °F (Oct 18, 11:50 AM)100% (Oct 7, 7:20 AM)30.21 "Hg (Oct 7, 7:20 AM)
Low36 °F (Oct 12, 7:20 AM)52% (Oct 10, 3:20 PM)29.21 "Hg (Oct 8, 4:20 PM)
Average53 °F87%29.68 "Hg
* Reported Oct 7 7:20 AM — Oct 22 7:20 AM, Nottingham, Weather by CustomWeather, © 2014

Note: Actual official high and low records may vary slightly from our data, if they occured in-between our weather recording intervals... More about our weather records

Advertising

Nottingham weather history for previous 24 hours

 ConditionsComfort  
Time TempWeatherWind HumidityBarometerVisibility
7:20 AM
Oct 22
46 °FPassing clouds.16 mph82%30.21 "HgN/A
6:50 AM46 °FPassing clouds.15 mph82%30.18 "HgN/A
6:20 AM46 °FPassing clouds.15 mph82%30.18 "HgN/A
5:50 AM46 °FPassing clouds.12 mph82%30.18 "HgN/A
5:20 AM46 °FPassing clouds.10 mph82%30.18 "HgN/A
4:50 AM45 °FPassing clouds.13 mph87%30.18 "HgN/A
4:20 AM45 °FPassing clouds.13 mph87%30.15 "HgN/A
3:50 AM46 °FPassing clouds.13 mph82%30.18 "HgN/A
3:20 AM46 °FPassing clouds.14 mph82%30.15 "HgN/A
2:50 AM46 °FPassing clouds.14 mph76%30.15 "HgN/A
2:20 AM46 °FPassing clouds.15 mph76%30.15 "HgN/A
1:50 AM45 °FPassing clouds.17 mph81%30.12 "HgN/A
1:20 AM45 °FPassing clouds.13 mph81%30.12 "HgN/A
12:50 AM45 °FPassing clouds.13 mph87%30.12 "HgN/A
12:20 AM43 °FPassing clouds.14 mph93%30.12 "HgN/A
11:50 PM
Oct 21
45 °FSprinkles. Passing clouds.16 mph81%30.09 "HgN/A
11:20 PM45 °FPassing clouds.16 mph76%30.09 "HgN/A
10:50 PMN/A18 mphN/AN/AN/A
10:20 PM43 °FClear.18 mph81%30.07 "Hg10 mi
9:50 PM43 °FPassing clouds.16 mph81%30.04 "HgN/A
9:20 PM43 °FPassing clouds.18 mph81%30.04 "HgN/A
8:50 PM43 °FPassing clouds.20 mph81%30.01 "HgN/A
8:20 PM45 °FPassing clouds.23 mph76%29.98 "HgN/A
7:50 PM45 °FPassing clouds.23 mph81%29.95 "HgN/A
7:20 PM45 °FPassing clouds.20 mph81%29.95 "HgN/A
6:20 PM45 °FSprinkles. Scattered clouds.22 mph81%29.89 "HgN/A
5:50 PM45 °FScattered clouds.20 mph76%29.86 "HgN/A
3:50 PM46 °FScattered showers. Scattered clouds.22 mph82%29.77 "HgN/A
3:20 PM48 °FRain showers. Scattered clouds.25 mph76%29.74 "Hg4 mi
2:50 PM52 °FSprinkles. Broken clouds.28 mph62%29.71 "HgN/A
2:20 PM52 °FBroken clouds.24 mph67%29.68 "HgN/A
1:50 PM50 °FScattered showers. Scattered clouds.33 mph76%29.68 "HgN/A
1:20 PM52 °FScattered showers. Scattered clouds.21 mph72%29.65 "HgN/A
12:50 PM50 °FScattered showers. Scattered clouds.28 mph76%29.62 "HgN/A
11:50 AM52 °FScattered clouds.21 mph72%29.59 "HgN/A
11:20 AM50 °FSprinkles. Partly sunny.22 mph76%29.59 "HgN/A
10:50 AM52 °FScattered showers. Partly sunny.26 mph67%29.56 "HgN/A
10:20 AM50 °FPartly sunny.25 mph71%29.53 "HgN/A
9:50 AM50 °FPartly sunny.22 mph71%29.53 "HgN/A
9:20 AM50 °FPartly sunny.23 mph76%29.50 "HgN/A
Weather by CustomWeather, © 2014

See weather overviewHow to use our weather pages